Kuchera_Ratio
11.0 9.0 8.7 7.2 1.2 0.0 0.0 0.0 0.0 0.0 0.0 0.0 0.0 0.0 0.0 0.0 0.0 0.0 0.0 0.0 0.0 0.0 0.0 0.0 0.0 0.0 0.0 0.0 0.0 0.0 0.0 0.0 0.0 0.0 0.0 0.0 0.0 0.0 0.0 0.0 0.0 0.0 0.0
10.7 9.4 9.5 8.7 7.0 1.6 0.6 0.0 0.0 0.0 0.0 0.0 0.0 0.0 0.0 0.0 0.0 0.0 0.0 0.0 0.0 0.0 0.0 0.0 0.0 0.0 0.0 0.0 0.0 0.0 0.0 0.0 0.0 0.0 0.0 0.0 0.0 0.0 0.0 0.0 0.0 0.0 0.0
10.4 9.6 9.4 9.3 8.5 8.1 5.9 2.8 1.8 1.1 0.4 0.0 0.0 0.0 0.0 0.0 0.0 0.0 0.0 0.0 0.0 0.0 0.0 0.0 0.1 0.0 0.2 0.0 0.0 0.0 0.0 0.0 0.0 0.4 0.0 0.0 0.0 0.0 0.0 0.0 0.0 0.0 0.0
12.3 11.0 12.2 10.8 10.3 9.7 9.4 7.0 7.3 4.6 4.7 1.9 0.1 0.0 0.0 0.0 0.0 0.0 0.0 0.0 0.0 0.0 0.0 0.0 0.0 0.0 0.4 0.0 0.0 0.0 0.0 0.6 0.2 1.9 2.0 1.5 0.4 0.0 0.0 1.5 2.7 0.0 0.0
13.6 13.7 13.6 12.6 12.2 12.0 11.1 10.2 9.0 6.7 7.3 7.3 4.2 2.4 1.2 0.3 0.0 0.0 0.0 0.0 0.4 0.4 0.2 0.0 0.0 0.9 1.8 0.5 0.0 0.0 0.4 2.3 2.8 3.8 3.6 2.9 2.6 3.0 5.1 3.0 3.9 2.2 0.0
15.2 14.9 14.4 13.2 13.7 14.2 13.5 13.0 10.9 9.0 10.3 9.4 8.2 7.9 5.7 0.7 1.5 2.1 1.1 0.6 0.0 0.9 1.7 0.1 0.0 2.3 1.2 0.6 0.0 0.0 0.0 2.3 3.8 4.8 5.0 5.2 4.2 3.7 3.2 5.1 5.6 6.7 7.5
15.6 16.0 15.4 15.3 14.6 14.9 14.2 14.1 13.3 12.6 11.6 12.1 10.8 9.7 8.7 5.5 4.1 3.5 1.9 0.9 0.4 0.9 1.1 1.0 0.3 0.0 1.7 0.1 0.9 0.8 0.5 0.4 0.4 3.0 5.8 4.9 5.7 3.3 4.1 6.1 5.9 7.1 8.2
16.1 15.8 16.1 17.5 16.7 15.8 15.7 15.6 14.8 12.5 12.5 12.3 12.2 12.0 10.8 8.2 6.9 5.5 3.7 3.1 2.1 0.7 0.6 0.8 1.6 1.5 0.9 1.5 2.5 3.2 2.4 0.6 0.8 0.3 2.0 2.3 1.3 1.7 2.8 3.3 5.7 6.6 4.8
15.1 15.8 16.0 17.5 18.5 17.3 17.6 16.7 15.2 14.2 13.3 13.1 12.6 13.4 13.5 12.4 8.5 7.4 6.1 5.9 4.2 2.8 1.2 0.7 1.1 2.5 0.0 1.0 4.0 5.5 4.9 3.6 0.0 0.9 1.3 1.5 2.1 2.3 3.7 6.6 8.6 9.6 11.0
13.5 14.1 14.6 16.2 18.4 19.0 17.8 17.7 15.5 15.0 14.7 13.6 13.7 13.7 13.1 13.9 10.7 8.2 7.9 8.8 9.9 7.7 4.0 2.4 0.0 1.8 0.0 0.6 5.6 6.5 8.3 5.8 4.0 3.8 3.9 3.9 3.5 4.4 4.1 7.1 8.4 12.2 12.0
12.7 13.1 13.5 13.9 15.9 17.3 17.3 16.3 16.4 16.4 15.8 16.5 16.3 15.4 15.2 14.5 14.7 9.6 7.2 10.5 10.4 10.8 9.6 7.1 4.2 0.6 0.7 0.7 1.6 5.7 5.7 3.1 4.3 6.5 6.3 6.7 5.0 5.7 6.4 7.4 7.6 10.1 12.5
13.6 13.9 14.0 13.7 13.8 13.9 16.5 16.8 16.9 17.1 17.6 17.3 16.4 15.5 14.0 13.9 12.0 11.0 8.0 6.7 7.1 10.7 10.8 9.0 6.9 3.2 1.7 1.9 1.8 0.9 0.1 3.2 6.6 7.9 8.6 9.1 9.0 9.2 7.9 8.8 9.3 9.5 9.2
14.5 14.9 14.6 14.1 14.0 13.9 15.4 16.3 16.2 16.1 16.6 16.3 15.4 15.1 14.2 12.6 12.5 9.9 9.0 7.6 6.3 10.1 9.6 7.3 3.9 3.5 3.6 3.4 2.1 1.4 0.8 7.3 9.0 10.5 11.1 10.5 10.3 9.4 10.7 10.4 9.9 9.3 9.9
15.9 15.6 15.1 15.3 14.9 14.2 13.7 14.1 14.7 15.0 15.4 15.3 15.3 15.1 14.5 13.5 12.7 12.0 12.1 12.2 10.3 11.3 9.4 9.8 6.2 5.1 4.7 6.2 6.2 5.6 6.3 8.5 10.3 11.5 11.7 11.2 10.5 12.3 12.6 11.5 13.3 12.9 13.5
16.6 16.3 16.1 15.5 15.4 14.9 14.0 14.2 14.3 14.2 14.3 15.8 15.4 14.9 15.3 15.0 13.0 9.8 10.1 11.7 12.2 11.8 10.9 13.6 13.4 13.0 11.7 9.8 9.8 8.7 10.6 13.7 14.7 14.6 13.5 13.1 12.6 12.6 12.7 13.2 13.3 13.9 14.8
17.8 16.9 16.5 16.0 15.6 15.2 15.2 14.9 12.5 12.6 12.3 11.8 11.1 12.0 11.7 9.7 7.7 7.1 6.6 6.6 6.0 5.7 10.8 13.2 14.4 14.2 13.8 12.0 11.5 13.0 13.2 13.6 15.4 15.5 16.5 16.1 15.0 14.3 14.2 13.9 14.0 15.0 15.6
18.9 17.6 16.7 16.1 16.4 16.2 15.8 16.0 16.6 13.7 12.3 12.3 12.0 11.5 10.8 10.3 9.2 8.4 7.6 6.7 5.7 5.7 12.3 12.2 12.7 13.7 13.6 12.6 12.6 13.4 14.8 14.8 16.6 17.0 17.4 17.7 17.8 18.1 17.4 15.8 15.3 15.5 15.7
19.6 17.4 17.4 17.1 16.5 16.2 16.1 16.0 15.7 16.1 16.4 15.2 12.5 12.4 12.0 11.0 10.2 9.5 8.4 8.2 12.7 11.3 12.5 12.8 12.5 12.4 12.6 12.6 12.1 13.3 14.1 15.4 17.1 16.8 18.3 18.5 19.0 18.9 18.7 18.3 18.3 19.4 18.5
20.9 19.9 18.6 17.4 16.9 16.4 16.2 16.2 16.0 15.9 16.2 16.0 15.0 13.6 12.3 11.5 10.9 10.2 9.1 13.0 13.9 13.7 13.2 12.9 12.0 10.7 12.0 11.6 11.4 12.8 14.0 16.8 17.3 17.4 18.1 19.3 19.8 19.3 19.0 19.0 19.6 18.0 18.8
22.2 19.1 17.8 18.4 18.1 17.6 17.0 16.9 16.9 16.9 17.1 16.7 16.3 15.6 14.3 14.0 14.8 14.1 13.1 13.1 13.5 13.7 13.7 13.5 12.9 12.0 10.4 12.6 12.8 13.6 15.1 15.7 16.6 17.9 18.0 19.2 20.2 20.0 19.6 20.0 20.2 19.9 19.6
20.1 19.6 18.0 18.2 17.9 17.6 17.5 17.7 17.5 17.5 17.7 17.4 16.7 15.0 13.3 15.2 15.4 14.7 14.5 14.2 13.9 13.6 13.7 13.1 12.7 12.5 13.8 13.5 13.5 15.0 15.9 16.4 17.3 17.9 18.2 18.7 19.1 20.5 19.9 20.1 20.2 20.7 21.4
20.5 20.0 19.2 19.1 18.4 18.3 18.2 18.0 18.0 17.9 17.9 17.9 17.1 15.8 13.9 15.6 15.9 15.4 15.0 14.8 14.3 13.7 13.2 13.5 13.5 13.1 12.9 13.5 14.3 15.4 16.4 16.7 17.4 18.0 18.2 18.5 19.1 20.2 20.4 20.5 20.7 20.6 20.8
20.3 20.1 19.4 19.1 18.7 18.0 18.5 18.2 18.4 18.4 18.2 17.8 17.4 17.1 16.9 16.7 16.3 16.3 16.0 15.5 15.3 14.7 14.0 13.8 14.2 13.9 13.5 14.1 13.9 14.8 16.7 16.9 16.9 17.1 18.3 18.8 19.1 19.0 19.9 20.6 20.6 20.8 20.8
19.5 19.3 19.3 19.0 19.0 19.3 19.1 19.0 18.9 18.4 18.6 18.7 18.5 18.0 17.9 17.5 17.3 17.1 16.6 15.8 15.6 15.3 14.8 14.8 14.8 14.8 14.8 15.0 14.6 15.0 15.7 15.8 16.4 17.2 17.7 18.5 18.9 17.1 19.0 20.4 20.4 20.2 21.2
19.0 19.2 19.4 19.5 19.7 19.9 19.7 19.8 19.8 19.6 19.5 19.4 19.3 18.8 18.4 18.2 18.1 17.6 16.9 16.2 16.3 16.3 16.3 15.8 15.6 15.4 15.9 15.7 15.8 16.3 15.6 14.1 16.5 16.4 17.1 17.4 18.7 19.4 20.0 20.2 20.1 20.1 20.9
19.1 19.6 19.8 20.1 20.9 20.9 20.8 20.8 20.9 20.8 21.1 20.5 20.1 19.9 19.5 19.2 18.3 17.8 17.3 17.3 17.2 17.3 17.2 16.9 16.7 17.1 16.6 16.3 16.5 16.3 13.7 13.4 15.0 14.7 17.6 18.2 19.1 19.9 20.1 20.4 20.7 21.2 21.3